Shungnak AP, Shungnak, AK, AK

12:42 PM AKST on November 18, 2019 (GMT -0900)
Shungnak AP, Shungnak, AK

Weather History for PAGH - September, 2019

Change the Weather History Date:

Monday, September 16, 2019

  Actual Average (PAFM) Record (PAFM)
Temperature  
Mean Temperature 42 °F -  
Max Temperature 50 °F 44 °F 64 °F (2006)
Min Temperature 32 °F 33 °F 19 °F (1987)
Degree Days  
Heating Degree Days 22    
Moisture  
Dew Point 29 °F    
Average Humidity 63    
Maximum Humidity 82    
Minimum Humidity 44    
Precipitation  
Precipitation 0.00 in - - ()
Sea Level Pressure  
Sea Level Pressure 29.71 in    
Wind  
Wind Speed 9 mph (NW)    
Max Wind Speed 18 mph    
Max Gust Speed 22 mph    
Visibility 10 miles    
Events      
Averages and records for this station are not official NWS values.
T = Trace of Precipitation, MM = Missing Value Source: NWS Daily Summary

Daily Weather History Graph

Daily Weather History Graph

Search for Another Location

Airport or City:

Astronomy

Sep. 16, 2019 Rise Set
Actual Time 7:50 AM AKDT 8:54 PM AKDT
Civil Twilight 6:56 AM AKDT 9:48 PM AKDT
Nautical Twilight 5:45 AM AKDT 10:58 PM AKDT
Astronomical Twilight 4:08 AM AKDT 12:31 AM AKDT
Moon 9:39 PM AKDT (9/16) 10:52 AM AKDT (9/16)
Length of Visible Light 14h 52m
Length of Day
13h 03m
Waning Gibbous, 94% of the Moon is Illuminated
Sep 16
Waning Gibbous
Sep 21
Last Quarter
Sep 28
New
Oct 5
First Quarter
Oct 13
Full

Hourly Weather History & Observations

Time (AKDT) Temp. Windchill Dew Point Humidity Pressure Visibility Wind Dir Wind Speed Gust Speed Precip Events Conditions
12:56 AM 42.1 °F 35.2 °F 34.0 °F 73% 29.61 in 10.0 mi West 12.7 mph - N/A   Clear
1:56 AM 39.9 °F 33.9 °F 33.1 °F 77% 29.62 in 10.0 mi West 9.2 mph - N/A   Clear
3:56 AM 37.0 °F 31.0 °F 30.9 °F 79% 29.65 in 10.0 mi NW 8.1 mph - N/A   Clear
4:56 AM 37.0 °F 29.8 °F 30.0 °F 76% 29.66 in 10.0 mi WNW 10.4 mph - N/A   Clear
5:56 AM 37.0 °F 33.3 °F 30.0 °F 76% 29.67 in 10.0 mi NW 4.6 mph - N/A   Clear
6:56 AM 36.0 °F 28.5 °F 30.0 °F 79% 29.67 in 10.0 mi WNW 10.4 mph - N/A   Clear
7:56 AM 36.0 °F 31.1 °F 28.9 °F 76% 29.68 in 10.0 mi NW 5.8 mph - N/A   Clear
9:56 AM 37.9 °F - 30.0 °F 73% 29.71 in 10.0 mi Calm Calm - N/A   Clear
10:56 AM 39.9 °F 37.8 °F 32.0 °F 73% 29.71 in 10.0 mi SSE 3.5 mph - N/A   Clear
11:56 AM 44.1 °F - 30.9 °F 60% 29.72 in 10.0 mi Calm Calm - N/A   Clear
12:56 PM 46.9 °F - 30.0 °F 52% 29.73 in 10.0 mi Calm Calm - N/A   Clear
1:56 PM 48.9 °F - 28.9 °F 46% 29.73 in 10.0 mi NW 9.2 mph - N/A   Clear
2:56 PM 50.0 °F - 28.9 °F 44% 29.73 in 10.0 mi North 6.9 mph - N/A   Mostly Cloudy
3:56 PM 50.0 °F - 28.9 °F 44% 29.73 in 10.0 mi North 9.2 mph - N/A   Overcast
4:56 PM 48.0 °F - 28.0 °F 46% 29.74 in 10.0 mi NNW 17.3 mph 21.9 mph N/A   Overcast
5:56 PM 46.9 °F - 28.0 °F 48% 29.75 in 10.0 mi NNW 16.1 mph - N/A   Overcast
6:56 PM 46.9 °F - 27.0 °F 46% 29.75 in 10.0 mi NNW 18.4 mph 21.9 mph N/A   Overcast
7:56 PM 42.1 °F 34.5 °F 26.1 °F 53% 29.76 in 10.0 mi NNW 15.0 mph - N/A   Clear
8:56 PM 37.9 °F 30.9 °F 25.0 °F 60% 29.77 in 10.0 mi NNW 10.4 mph - N/A   Clear
9:56 PM 35.1 °F 26.9 °F 25.0 °F 67% 29.78 in 10.0 mi NW 11.5 mph - N/A   Clear
11:56 PM 32.0 °F 22.5 °F 27.0 °F 82% 29.78 in 10.0 mi WNW 12.7 mph - N/A   Clear